Wind_Speed
59 59 58 58 58 58 58 58 58 58 58 57 57 56 56 56 56 56 56 56 56 55 56 56 55 54 54 53 54 53 54 53 53 53 52 52 52 51
61 60 60 60 60 60 59 59 60 60 59 58 58 58 58 58 57 58 58 58 57 57 56 56 56 56 55 54 55 55 54 54 55 55 55 55 54 54
62 62 61 62 62 62 61 60 60 60 60 60 60 60 60 60 59 59 59 58 57 58 58 57 57 57 57 56 56 56 56 55 55 56 56 56 56 55
64 63 63 62 62 62 62 62 62 62 61 60 59 59 60 60 60 59 59 59 58 58 58 58 58 57 58 57 57 57 57 57 57 57 57 58 58 57
64 64 64 63 63 63 63 62 62 61 61 60 59 59 59 59 59 59 58 58 58 58 58 58 57 57 57 57 58 58 58 58 58 58 58 58 58 57
64 64 63 63 63 63 63 62 61 61 61 61 60 59 59 59 60 59 58 58 58 57 58 57 57 56 56 57 59 59 58 58 58 58 58 58 58 57
64 64 63 63 63 62 62 62 62 62 61 61 61 60 59 59 58 58 58 58 57 58 58 58 58 57 57 58 58 58 58 57 58 58 58 58 57 57
64 64 64 64 63 63 63 63 63 62 61 60 60 59 59 59 58 58 58 58 58 58 58 58 58 58 58 57 58 58 57 57 57 57 58 57 57 57
64 63 63 63 63 63 62 62 62 62 61 60 59 58 58 58 58 58 58 58 58 58 58 59 59 58 58 58 57 57 56 56 57 57 57 57 57 58
63 63 62 62 61 62 61 61 60 60 60 60 59 59 58 58 58 58 59 58 58 58 59 59 59 59 58 57 56 56 57 57 57 57 57 58 58 58
63 63 62 62 61 61 61 60 60 60 60 60 60 59 59 60 59 59 59 59 59 58 58 59 59 59 58 57 56 56 57 57 58 58 58 58 58 59
62 62 62 61 61 61 60 60 60 60 61 60 59 59 58 58 58 58 58 58 58 57 57 58 58 58 58 57 57 57 56 57 58 59 58 58 59 59
60 60 60 60 60 60 60 59 58 58 58 58 58 58 57 56 56 57 57 57 57 56 56 57 57 58 58 57 57 57 57 57 57 57 58 58 58 58
58 58 58 58 58 58 58 57 57 57 57 57 57 57 56 55 56 56 57 57 56 56 56 56 56 56 57 57 57 57 57 57 57 57 56 57 58 58
55 56 56 56 56 57 56 56 55 55 55 56 56 55 56 56 56 56 56 57 56 56 56 56 56 56 56 56 56 56 57 57 57 57 57 57 58 59
52 53 54 55 55 55 55 55 54 54 54 54 54 54 54 55 55 54 55 55 56 56 56 57 56 56 56 56 56 55 56 56 56 57 58 58 58 58
49 50 52 53 53 53 53 53 53 52 52 52 53 52 52 52 52 53 53 54 54 55 56 57 57 57 57 56 55 55 55 55 56 57 57 57 56 57
48 49 49 50 51 52 52 51 51 51 51 51 51 51 51 51 51 52 52 53 53 54 55 55 56 56 55 54 54 54 54 55 55 56 57 57 57 57
46 47 47 48 49 50 51 51 50 50 50 50 50 50 50 50 50 51 51 51 52 53 53 54 55 55 55 54 54 55 55 55 55 55 56 56 56 57
44 44 45 46 47 48 49 50 51 50 50 50 50 50 49 49 50 50 50 51 51 51 52 53 53 54 54 53 53 53 53 54 54 54 54 54 55 55
42 43 44 45 46 47 48 49 50 50 50 49 49 49 49 49 49 50 50 50 50 51 51 51 52 53 53 52 51 51 51 52 52 53 53 53 53 53
40 41 42 44 45 45 46 47 48 49 49 49 48 48 48 48 49 49 49 49 49 50 50 51 51 52 51 51 50 49 50 50 50 50 50 50 50 49
38 39 40 40 42 43 44 45 46 47 47 48 48 48 48 48 48 48 48 48 48 48 49 49 49 49 49 49 48 48 47 47 47 48 48 48 48 47
Wind_Direction
258 259 260 260 260 261 262 262 262 262 262 262 262 262 261 261 261 261 261 261 261 261 261 260 260 260 261 262 262 262 262 262 262 262 262 262 263 262
259 259 260 260 261 261 262 262 262 263 262 262 262 262 261 261 261 261 261 261 261 261 261 260 260 260 261 261 261 261 261 261 262 261 261 262 262 262
258 259 260 260 261 261 262 262 263 263 263 263 262 261 261 261 261 261 261 261 261 261 261 260 260 260 260 260 261 261 261 261 262 261 261 261 261 262
258 259 259 260 261 261 261 262 262 263 263 263 262 262 261 261 261 261 261 261 260 261 260 260 260 259 260 259 260 260 261 261 262 262 262 261 261 261
258 259 259 259 260 261 261 262 262 262 262 262 262 262 262 261 261 260 261 261 260 260 260 261 260 259 259 260 260 261 261 262 262 263 262 262 261 260
258 258 259 259 259 260 260 260 261 261 262 263 263 263 262 261 260 260 260 261 260 260 260 261 261 260 260 261 261 262 262 263 263 263 262 262 261 260
258 258 258 258 259 259 260 260 260 261 262 263 264 263 262 261 259 259 259 259 259 260 260 260 261 260 261 262 262 262 262 263 263 263 263 262 262 261
259 259 258 258 258 258 259 260 260 261 262 262 262 262 262 260 259 259 259 259 259 260 260 260 261 261 261 262 262 262 262 263 263 264 264 263 262 262
258 258 258 258 257 258 259 260 260 261 261 261 261 262 262 260 259 259 259 259 259 260 260 260 261 261 261 262 263 262 263 264 264 265 264 263 263 262
258 257 257 257 258 258 259 260 260 260 261 261 261 261 261 260 259 259 259 259 259 259 260 260 260 261 261 261 261 262 262 263 263 264 264 263 262 262
257 257 257 258 258 258 259 259 259 259 259 260 260 260 261 261 260 260 259 259 259 259 259 260 259 260 260 261 261 261 262 263 263 263 263 263 262 262
257 257 257 258 258 258 259 259 258 259 259 259 259 259 259 260 259 259 259 259 259 259 259 259 259 259 259 260 261 261 262 262 262 262 263 263 263 263
257 256 256 257 257 257 257 258 257 257 258 258 258 258 258 258 259 258 259 259 259 259 259 259 260 260 260 260 261 261 262 262 262 262 263 262 262 263
257 256 255 255 255 255 255 256 256 255 256 256 257 257 258 259 259 259 258 259 259 260 259 259 260 261 261 261 261 261 261 262 262 262 262 262 263 263
258 257 255 255 254 254 254 254 254 254 255 256 256 257 258 259 259 259 259 259 259 259 260 261 261 261 261 261 262 262 262 262 262 262 262 263 263 263
258 257 255 254 253 252 253 254 254 254 255 256 257 257 258 258 259 260 260 260 259 259 259 260 262 262 262 262 262 263 262 262 262 263 263 263 263 263
258 256 255 254 252 252 252 253 254 254 255 255 256 257 257 258 259 259 260 261 260 260 259 260 261 262 263 263 263 264 264 263 263 263 263 263 263 263
257 256 255 254 253 252 252 252 253 254 255 255 256 257 258 259 260 260 261 262 261 261 260 260 260 261 262 263 264 264 264 264 264 264 264 264 263 263
257 256 255 254 253 252 252 252 253 254 254 255 255 257 258 259 260 260 260 261 261 261 261 261 261 262 262 263 263 264 264 263 263 264 264 264 264 264
256 256 254 254 253 252 252 253 254 254 255 255 256 257 258 259 260 260 261 261 262 262 262 262 262 263 263 263 263 263 264 264 264 265 265 265 265 264
257 256 256 255 254 253 254 254 254 255 255 255 256 257 258 259 259 260 261 261 262 263 263 263 263 263 263 263 262 262 263 264 264 264 265 265 265 263
258 257 256 256 255 255 255 255 255 255 255 255 255 256 258 259 260 261 261 262 262 263 263 262 262 262 262 262 263 263 264 264 264 264 264 265 265 264
257 256 256 256 255 254 254 254 254 255 255 255 255 256 258 260 261 261 261 262 262 262 262 262 262 262 262 262 263 264 264 264 264 263 263 264 263 264
Height
5644 5646 5647 5649 5650 5651 5652 5653 5654 5656 5658 5660 5661 5662 5663 5664 5665 5666 5668 5669 5671 5672 5674 5676 5678 5680 5682 5684 5686 5687 5689 5691 5693 5695 5696 5698 5699 5701
5628 5630 5631 5633 5634 5635 5636 5637 5638 5639 5641 5644 5645 5646 5646 5648 5649 5650 5652 5653 5655 5656 5657 5659 5662 5664 5666 5669 5670 5672 5674 5676 5678 5680 5682 5683 5685 5686
5612 5613 5615 5616 5617 5619 5620 5621 5621 5623 5625 5627 5628 5629 5630 5631 5633 5634 5635 5637 5638 5640 5641 5643 5645 5648 5650 5652 5655 5657 5659 5661 5663 5664 5666 5668 5669 5671
5594 5596 5598 5599 5600 5602 5603 5604 5605 5606 5608 5609 5611 5611 5613 5614 5615 5617 5618 5620 5622 5623 5625 5627 5629 5631 5634 5636 5638 5640 5642 5645 5646 5648 5650 5653 5654 5654
5576 5578 5580 5581 5583 5584 5585 5587 5588 5589 5590 5592 5594 5595 5596 5597 5598 5600 5602 5603 5605 5607 5609 5611 5613 5615 5617 5619 5621 5623 5626 5629 5631 5632 5633 5635 5636 5638
5558 5559 5561 5563 5565 5566 5568 5569 5570 5572 5573 5575 5576 5578 5579 5579 5581 5583 5585 5587 5589 5591 5593 5595 5598 5599 5601 5603 5605 5607 5609 5611 5613 5614 5616 5617 5619 5621
5539 5541 5543 5545 5547 5549 5550 5552 5553 5555 5556 5558 5560 5561 5562 5563 5565 5566 5569 5571 5573 5575 5577 5580 5582 5584 5585 5587 5588 5590 5592 5594 5596 5597 5599 5601 5603 5604
5521 5523 5525 5527 5529 5531 5533 5534 5536 5538 5540 5541 5543 5544 5546 5546 5548 5549 5552 5555 5558 5561 5561 5563 5565 5567 5569 5571 5572 5574 5576 5578 5579 5580 5582 5584 5586 5587
5502 5504 5507 5509 5511 5513 5515 5517 5519 5520 5523 5525 5526 5528 5529 5531 5532 5534 5535 5537 5541 5542 5544 5547 5548 5551 5552 5554 5556 5558 5560 5561 5563 5564 5566 5567 5569 5571
5483 5486 5488 5491 5493 5496 5498 5500 5502 5504 5506 5508 5510 5511 5512 5513 5515 5517 5518 5521 5523 5525 5527 5530 5532 5534 5536 5538 5540 5541 5543 5545 5546 5548 5550 5551 5552 5554
5465 5467 5470 5473 5476 5478 5480 5483 5485 5487 5488 5490 5492 5493 5495 5496 5498 5500 5502 5504 5507 5509 5510 5513 5515 5517 5520 5522 5523 5525 5526 5528 5530 5531 5533 5534 5535 5537
5446 5449 5452 5455 5457 5459 5461 5464 5467 5469 5471 5473 5474 5476 5478 5480 5481 5483 5486 5488 5490 5493 5494 5496 5498 5500 5503 5506 5507 5508 5510 5511 5513 5515 5516 5517 5518 5519
5427 5430 5434 5436 5439 5441 5443 5446 5449 5451 5452 5455 5457 5459 5461 5464 5465 5467 5469 5471 5474 5477 5479 5480 5481 5483 5486 5489 5491 5492 5493 5495 5496 5498 5499 5501 5502 5503
5409 5413 5416 5418 5421 5424 5426 5429 5431 5433 5435 5438 5440 5443 5446 5448 5450 5451 5453 5455 5458 5460 5462 5463 5465 5467 5469 5472 5474 5476 5477 5479 5480 5482 5483 5484 5486 5487
5392 5395 5398 5401 5404 5406 5409 5411 5413 5416 5419 5421 5424 5427 5430 5432 5433 5435 5437 5439 5441 5443 5445 5447 5449 5451 5453 5455 5458 5459 5460 5462 5463 5465 5466 5468 5469 5470
5375 5378 5381 5384 5386 5389 5392 5395 5397 5400 5403 5406 5409 5412 5413 5415 5417 5419 5421 5423 5425 5428 5429 5431 5433 5434 5437 5439 5441 5442 5443 5445 5446 5447 5449 5450 5452 5453
5360 5362 5365 5367 5370 5373 5377 5380 5382 5385 5388 5391 5394 5396 5398 5400 5402 5403 5405 5407 5409 5411 5414 5415 5416 5418 5420 5422 5424 5426 5427 5428 5429 5430 5431 5433 5435 5436
5345 5347 5350 5353 5356 5359 5362 5365 5368 5370 5373 5376 5378 5381 5383 5385 5387 5388 5390 5391 5393 5396 5398 5399 5400 5402 5403 5406 5408 5409 5410 5411 5412 5412 5413 5415 5418 5419
5331 5333 5336 5338 5342 5344 5347 5350 5353 5356 5358 5361 5363 5366 5368 5370 5371 5373 5374 5376 5378 5380 5381 5383 5383 5385 5387 5390 5393 5392 5393 5394 5395 5396 5397 5398 5400 5402
5317 5320 5322 5325 5327 5330 5333 5336 5339 5341 5343 5346 5348 5351 5353 5355 5356 5358 5359 5361 5362 5364 5365 5366 5368 5369 5371 5374 5376 5378 5377 5377 5378 5380 5381 5382 5383 5384
5305 5307 5309 5311 5313 5316 5319 5322 5324 5327 5329 5332 5334 5336 5338 5339 5341 5343 5344 5346 5347 5348 5350 5352 5353 5354 5354 5355 5358 5361 5362 5362 5362 5363 5364 5365 5366 5368
5292 5294 5296 5298 5300 5302 5305 5307 5310 5312 5315 5317 5319 5321 5323 5324 5326 5327 5329 5330 5332 5333 5335 5336 5337 5337 5338 5340 5343 5345 5347 5347 5347 5348 5349 5350 5350 5352
5280 5281 5283 5284 5286 5288 5291 5293 5296 5298 5301 5303 5305 5307 5308 5310 5311 5313 5314 5316 5317 5318 5319 5320 5321 5323 5324 5326 5328 5330 5331 5332 5332 5333 5335 5335 5336 5337